BAW19W KAUS-EGLL

Flight info

Callsign BAW19W
Flight time N/A
Altitude 37000
Route ELOEL3 KLNGR DCT FUZ J131 LIT DCT IIU DCT JHW DCT ROC DCT SSENA DCT BAREE N793B JANJO/M084F390 DCT 56N050W 57N040W 57N030W 56N020W DCT RESNO/N0486F390 DCT NETKI DCT BOFUM Q37 MALUD Q38 NUGRA NUGRA2H
Aircraft A35K/H-SBDE1E2E3GHIJ1J3J4J5J6M1M2P2RWXYZ/LB1D1

Departure

Time 2026-05-01 10:46
Airport Austin Bergstrom International Airport (KAUS)

Arrival

Time N/A
Airport London Heathrow Airport (EGLL)
Time Latitude Longitude Altitude Speed Heading
2026-05-01 09:59 30.20287 -97.66234 533 ft 0 kts 249°
2026-05-01 10:31 30.20304 -97.66193 533 ft 4 kts 236°
2026-05-01 10:31 30.20349 -97.66146 533 ft 4 kts 189°
2026-05-01 10:32 30.20358 -97.66145 533 ft 0 kts 176°
2026-05-01 10:35 30.20352 -97.66145 533 ft 3 kts 176°
2026-05-01 10:35 30.20318 -97.66129 533 ft 8 kts 161°
2026-05-01 10:36 30.20175 -97.66120 533 ft 12 kts 178°
2026-05-01 10:36 30.20090 -97.66117 533 ft 9 kts 178°
2026-05-01 10:36 30.20044 -97.66134 533 ft 6 kts 236°
2026-05-01 10:37 30.20036 -97.66189 533 ft 8 kts 266°
2026-05-01 10:37 30.20032 -97.66330 533 ft 10 kts 269°
2026-05-01 10:37 30.20014 -97.66385 533 ft 6 kts 211°
2026-05-01 10:38 30.19969 -97.66390 533 ft 8 kts 181°
2026-05-01 10:38 30.19921 -97.66372 533 ft 6 kts 122°
2026-05-01 10:38 30.19914 -97.66307 533 ft 10 kts 90°
2026-05-01 10:38 30.19916 -97.66225 533 ft 10 kts 88°
2026-05-01 10:39 30.19917 -97.66146 533 ft 10 kts 88°
2026-05-01 10:39 30.19919 -97.66071 533 ft 9 kts 88°
2026-05-01 10:39 30.19921 -97.65999 533 ft 9 kts 88°
2026-05-01 10:39 30.19920 -97.65931 533 ft 7 kts 102°
2026-05-01 10:40 30.19886 -97.65906 532 ft 6 kts 166°
2026-05-01 10:40 30.19834 -97.65903 533 ft 9 kts 178°
2026-05-01 10:40 30.19765 -97.65900 533 ft 11 kts 179°
2026-05-01 10:40 30.19681 -97.65898 533 ft 13 kts 179°
2026-05-01 10:41 30.19581 -97.65895 533 ft 15 kts 179°
2026-05-01 10:41 30.19470 -97.65893 533 ft 17 kts 179°
2026-05-01 10:41 30.19219 -97.65886 534 ft 20 kts 179°
2026-05-01 10:42 30.19080 -97.65882 534 ft 21 kts 179°
2026-05-01 10:42 30.18935 -97.65878 534 ft 21 kts 179°
2026-05-01 10:42 30.18790 -97.65875 534 ft 21 kts 179°
2026-05-01 10:42 30.18644 -97.65871 533 ft 21 kts 179°
2026-05-01 10:43 30.18498 -97.65868 533 ft 21 kts 179°
2026-05-01 10:43 30.18350 -97.65864 532 ft 21 kts 179°
2026-05-01 10:43 30.18202 -97.65860 533 ft 21 kts 179°
2026-05-01 10:43 30.18054 -97.65857 533 ft 21 kts 179°
2026-05-01 10:44 30.17964 -97.65855 533 ft 9 kts 179°
2026-05-01 10:44 30.17921 -97.65820 533 ft 8 kts 109°
2026-05-01 10:44 30.17918 -97.65769 534 ft 4 kts 91°
2026-05-01 10:44 30.17923 -97.65737 534 ft 3 kts 57°
2026-05-01 10:45 30.17942 -97.65729 533 ft 5 kts 15°
2026-05-01 10:45 30.17960 -97.65729 533 ft 1 kts
2026-05-01 10:45 30.17976 -97.65728 532 ft 5 kts
2026-05-01 10:45 30.18178 -97.65733 531 ft 65 kts 359°
2026-05-01 10:46 30.18869 -97.65750 534 ft 132 kts 359°
2026-05-01 10:46 30.19973 -97.65779 684 ft 174 kts 359°
2026-05-01 10:46 30.21151 -97.65810 1603 ft 166 kts 358°
2026-05-01 10:46 30.22274 -97.65873 2328 ft 163 kts 357°
2026-05-01 10:47 30.23472 -97.65942 2600 ft 183 kts 358°
2026-05-01 10:47 30.24827 -97.66009 2840 ft 207 kts 359°
2026-05-01 10:47 30.26366 -97.66078 3057 ft 234 kts 359°
2026-05-01 10:47 30.28050 -97.66300 3472 ft 251 kts 348°
2026-05-01 10:48 30.29730 -97.66878 4111 ft 258 kts 343°
2026-05-01 10:48 30.31449 -97.67568 4768 ft 264 kts 342°
2026-05-01 10:48 30.33199 -97.68299 5319 ft 270 kts 341°
2026-05-01 10:48 30.34980 -97.69057 5890 ft 275 kts 341°
2026-05-01 10:49 30.36792 -97.69832 6441 ft 280 kts 341°
2026-05-01 10:49 30.38631 -97.70621 7019 ft 283 kts 340°
2026-05-01 10:49 30.40489 -97.71418 7607 ft 286 kts 340°
2026-05-01 10:49 30.42363 -97.72225 8185 ft 289 kts 340°
2026-05-01 10:50 30.44257 -97.73041 8765 ft 292 kts 340°
2026-05-01 10:50 30.46169 -97.73865 9325 ft 295 kts 340°
2026-05-01 10:50 30.48104 -97.74698 9876 ft 298 kts 339°
2026-05-01 10:50 30.50067 -97.75544 10288 ft 307 kts 339°
2026-05-01 10:51 30.52120 -97.76431 10523 ft 322 kts 338°
2026-05-01 10:51 30.54270 -97.77360 10743 ft 337 kts 338°
2026-05-01 10:51 30.56513 -97.78328 10966 ft 351 kts 338°
2026-05-01 10:51 30.58848 -97.79337 11178 ft 364 kts 338°
2026-05-01 10:52 30.61258 -97.80378 11392 ft 375 kts 338°
2026-05-01 10:52 30.63738 -97.81451 11667 ft 384 kts 338°
2026-05-01 10:52 30.66251 -97.82538 12081 ft 387 kts 338°
2026-05-01 10:52 30.68789 -97.83636 12525 ft 390 kts 338°
2026-05-01 10:53 30.71339 -97.84739 12994 ft 392 kts 337°
2026-05-01 10:53 30.73901 -97.85850 13429 ft 394 kts 337°
2026-05-01 10:53 30.76489 -97.86919 13876 ft 397 kts 339°
2026-05-01 10:53 30.79130 -97.87881 14334 ft 398 kts 340°
2026-05-01 10:54 30.81780 -97.88835 14759 ft 400 kts 340°
2026-05-01 10:54 30.84446 -97.89808 15174 ft 402 kts 339°
2026-05-01 10:54 30.87123 -97.90796 15623 ft 404 kts 339°
2026-05-01 10:54 30.89809 -97.91790 16052 ft 406 kts 339°
2026-05-01 10:55 30.92505 -97.92793 16445 ft 408 kts 339°
2026-05-01 10:55 30.95219 -97.93797 16857 ft 410 kts 339°
2026-05-01 10:55 30.97949 -97.94804 17272 ft 412 kts 338°
2026-05-01 10:55 31.00684 -97.95818 17673 ft 413 kts 338°
2026-05-01 10:56 31.03431 -97.96838 18039 ft 416 kts 338°
2026-05-01 10:56 31.06195 -97.97865 18416 ft 418 kts 338°
2026-05-01 10:56 31.08936 -97.98883 18796 ft 420 kts 338°
2026-05-01 10:56 31.11725 -97.99921 19148 ft 422 kts 338°
2026-05-01 10:57 31.14537 -98.00969 19462 ft 425 kts 338°
2026-05-01 10:57 31.17373 -98.01975 19809 ft 428 kts 341°
2026-05-01 10:57 31.20340 -98.02586 20098 ft 437 kts 351°
2026-05-01 10:57 31.23405 -98.02528 20407 ft 446 kts
2026-05-01 10:58 31.26465 -98.01743 20701 ft 453 kts 14°
2026-05-01 10:58 31.29449 -98.00475 20961 ft 459 kts 18°
2026-05-01 10:58 31.32402 -97.99027 21243 ft 462 kts 20°
2026-05-01 10:58 31.35348 -97.97492 21580 ft 463 kts 21°
2026-05-01 10:59 31.38290 -97.95936 21858 ft 466 kts 21°
2026-05-01 10:59 31.41258 -97.94372 22099 ft 469 kts 20°
2026-05-01 10:59 31.44243 -97.92818 22372 ft 471 kts 20°
2026-05-01 10:59 31.47247 -97.91269 22662 ft 472 kts 20°
2026-05-01 11:00 31.50265 -97.89725 22892 ft 474 kts 20°
2026-05-01 11:00 31.53299 -97.88179 23154 ft 477 kts 20°
2026-05-01 11:00 31.56358 -97.86622 23392 ft 479 kts 20°
2026-05-01 11:00 31.59421 -97.85063 23665 ft 481 kts 20°
2026-05-01 11:01 31.62494 -97.83497 23914 ft 483 kts 20°
2026-05-01 11:01 31.65585 -97.81920 24126 ft 486 kts 20°
2026-05-01 11:01 31.68653 -97.80353 24357 ft 487 kts 20°
2026-05-01 11:01 31.71769 -97.78760 24571 ft 489 kts 20°
2026-05-01 11:02 31.74896 -97.77159 24809 ft 491 kts 20°
2026-05-01 11:02 31.78037 -97.75550 25037 ft 493 kts 20°
2026-05-01 11:02 31.81184 -97.73936 25262 ft 494 kts 20°
2026-05-01 11:02 31.84341 -97.72316 25473 ft 496 kts 20°
2026-05-01 11:03 31.87507 -97.70690 25687 ft 498 kts 20°
2026-05-01 11:03 31.90687 -97.69057 25921 ft 499 kts 20°
2026-05-01 11:03 31.93878 -97.67415 26131 ft 501 kts 20°
2026-05-01 11:03 31.97075 -97.65772 26347 ft 502 kts 20°
2026-05-01 11:04 32.00289 -97.64117 26565 ft 504 kts 20°
2026-05-01 11:04 32.03510 -97.62457 26780 ft 506 kts 20°
2026-05-01 11:04 32.06739 -97.60791 26976 ft 508 kts 20°
2026-05-01 11:04 32.09985 -97.59116 27177 ft 510 kts 20°
2026-05-01 11:05 32.13246 -97.57432 27393 ft 512 kts 20°
2026-05-01 11:05 32.16505 -97.55748 27635 ft 512 kts 20°
2026-05-01 11:05 32.19776 -97.54056 27848 ft 514 kts 20°
2026-05-01 11:05 32.23060 -97.52356 28035 ft 516 kts 20°
2026-05-01 11:06 32.26352 -97.50651 28249 ft 517 kts 20°
2026-05-01 11:06 32.29658 -97.48936 28450 ft 519 kts 20°
2026-05-01 11:06 32.32973 -97.47213 28629 ft 521 kts 20°
2026-05-01 11:07 32.39626 -97.43755 29025 ft 524 kts 20°
2026-05-01 11:07 32.42927 -97.42038 29219 ft 526 kts 20°
2026-05-01 11:07 32.46324 -97.40270 29414 ft 527 kts 20°
2026-05-01 11:07 32.49683 -97.38520 29598 ft 528 kts 20°
2026-05-01 11:08 32.53010 -97.36786 29769 ft 530 kts 20°
2026-05-01 11:08 32.56426 -97.35003 29971 ft 531 kts 20°
2026-05-01 11:08 32.63163 -97.31483 30330 ft 534 kts 20°
2026-05-01 11:09 32.66566 -97.29702 30544 ft 534 kts 20°
2026-05-01 11:09 32.69972 -97.27918 30725 ft 536 kts 20°
2026-05-01 11:09 32.73387 -97.26127 30932 ft 536 kts 20°
2026-05-01 11:10 32.80192 -97.22503 31483 ft 537 kts 23°
2026-05-01 11:10 32.83401 -97.20213 31738 ft 541 kts 33°
2026-05-01 11:10 32.86280 -97.17302 31963 ft 545 kts 44°
2026-05-01 11:10 32.88678 -97.13803 32204 ft 548 kts 56°
2026-05-01 11:11 32.90485 -97.09821 32415 ft 549 kts 68°
2026-05-01 11:11 32.91700 -97.05518 32652 ft 548 kts 75°
2026-05-01 11:11 32.92703 -97.01134 32932 ft 547 kts 76°
2026-05-01 11:11 32.93625 -96.96740 33190 ft 547 kts 77°
2026-05-01 11:12 32.94518 -96.92345 33419 ft 547 kts 77°
2026-05-01 11:12 32.95109 -96.89428 33583 ft 547 kts 77°
2026-05-01 11:12 32.96007 -96.85032 33843 ft 546 kts 77°
2026-05-01 11:12 32.96917 -96.80642 34083 ft 546 kts 77°
2026-05-01 11:13 32.97835 -96.76250 34320 ft 546 kts 77°
2026-05-01 11:13 32.99059 -96.70428 34660 ft 545 kts 77°
2026-05-01 11:13 32.99681 -96.67469 34808 ft 546 kts 77°
2026-05-01 11:13 33.00592 -96.63147 35068 ft 545 kts 77°
2026-05-01 11:14 33.01512 -96.58770 35290 ft 545 kts 77°
2026-05-01 11:14 33.02431 -96.54384 35485 ft 545 kts 77°
2026-05-01 11:14 33.03348 -96.49998 35729 ft 545 kts 77°
2026-05-01 11:14 33.04263 -96.45620 35968 ft 544 kts 77°
2026-05-01 11:15 33.05178 -96.41239 36185 ft 544 kts 77°
2026-05-01 11:15 33.06087 -96.36860 36391 ft 544 kts 77°
2026-05-01 11:15 33.06995 -96.32480 36584 ft 544 kts 77°
2026-05-01 11:15 33.07902 -96.28094 36779 ft 544 kts 77°
2026-05-01 11:16 33.08803 -96.23727 37020 ft 543 kts 77°
2026-05-01 11:16 33.09704 -96.19359 37072 ft 541 kts 77°
2026-05-01 11:16 33.11494 -96.10659 37074 ft 540 kts 77°
2026-05-01 11:17 33.13281 -96.01936 37073 ft 541 kts 77°
2026-05-01 11:17 33.15062 -95.93217 37072 ft 542 kts 77°
2026-05-01 11:18 33.16838 -95.84476 37076 ft 542 kts 77°
2026-05-01 11:18 33.18612 -95.75720 37081 ft 542 kts 77°
2026-05-01 11:19 33.20369 -95.67012 37099 ft 542 kts 77°
2026-05-01 11:19 33.22129 -95.58256 37098 ft 542 kts 77°
2026-05-01 11:20 33.23885 -95.49486 37097 ft 542 kts 77°
2026-05-01 11:20 33.25633 -95.40724 37085 ft 542 kts 77°
2026-05-01 11:21 33.27374 -95.31950 37082 ft 542 kts 77°
2026-05-01 11:21 33.29112 -95.23180 37081 ft 542 kts 77°
2026-05-01 11:22 33.30840 -95.14408 37082 ft 542 kts 77°
2026-05-01 11:22 33.32564 -95.05624 37081 ft 543 kts 77°
2026-05-01 11:23 33.34283 -94.96822 37083 ft 543 kts 77°
2026-05-01 11:23 33.35996 -94.88031 37073 ft 543 kts 77°
2026-05-01 11:24 33.37706 -94.79228 37073 ft 543 kts 77°
2026-05-01 11:25 33.40259 -94.66020 37073 ft 543 kts 77°
2026-05-01 11:25 33.42791 -94.52803 37073 ft 543 kts 77°
2026-05-01 11:26 33.45313 -94.39566 37072 ft 544 kts 77°
2026-05-01 11:27 33.46980 -94.30769 37074 ft 544 kts 77°
2026-05-01 11:27 33.48652 -94.21922 37072 ft 545 kts 77°
2026-05-01 11:28 33.50345 -94.13067 37068 ft 545 kts 75°
2026-05-01 11:28 33.51582 -94.08786 37074 ft 544 kts 64°
2026-05-01 11:28 33.53377 -94.04816 37075 ft 540 kts 53°
2026-05-01 11:29 33.60329 -93.94229 37073 ft 538 kts 47°
2026-05-01 11:30 33.67559 -93.83903 37073 ft 539 kts 47°
2026-05-01 11:30 33.72349 -93.76978 37072 ft 539 kts 47°
2026-05-01 11:31 33.77127 -93.70013 37074 ft 539 kts 47°
2026-05-01 11:31 33.81897 -93.63045 37072 ft 539 kts 47°
2026-05-01 11:32 33.86661 -93.56076 37071 ft 539 kts 47°
2026-05-01 11:32 33.91415 -93.49112 37077 ft 538 kts 47°
2026-05-01 11:33 33.96164 -93.42142 37083 ft 538 kts 47°
2026-05-01 11:33 34.00911 -93.35161 37082 ft 538 kts 47°
2026-05-01 11:34 34.05651 -93.28174 37095 ft 538 kts 47°
2026-05-01 11:34 34.10390 -93.21174 37082 ft 539 kts 47°
2026-05-01 11:35 34.15130 -93.14157 37086 ft 538 kts 47°
2026-05-01 11:35 34.19859 -93.07144 37092 ft 538 kts 47°
2026-05-01 11:36 34.24582 -93.00134 37084 ft 538 kts 47°
2026-05-01 11:36 34.29271 -92.93155 37084 ft 537 kts 47°
2026-05-01 11:37 34.33984 -92.86130 37101 ft 538 kts 47°
2026-05-01 11:37 34.38697 -92.79090 37090 ft 538 kts 47°
2026-05-01 11:38 34.43395 -92.72055 37086 ft 537 kts 47°
2026-05-01 11:38 34.48091 -92.65010 37084 ft 537 kts 47°
2026-05-01 11:39 34.52783 -92.57956 37097 ft 537 kts 47°
2026-05-01 11:39 34.57470 -92.50898 37091 ft 537 kts 47°
2026-05-01 11:40 34.62154 -92.43828 37099 ft 537 kts 47°
2026-05-01 11:40 34.66835 -92.36753 37084 ft 537 kts 47°
2026-05-01 11:41 34.71505 -92.29678 37086 ft 537 kts 47°
2026-05-01 11:41 34.76173 -92.22587 37094 ft 537 kts 47°
2026-05-01 11:42 34.80836 -92.15493 37090 ft 537 kts 47°
2026-05-01 11:42 34.85240 -92.08128 37085 ft 540 kts 53°
2026-05-01 11:43 34.89302 -92.00428 37081 ft 540 kts 54°
2026-05-01 11:43 34.93382 -91.92732 37081 ft 540 kts 53°
2026-05-01 11:44 34.99567 -91.81332 37082 ft 539 kts 53°
2026-05-01 11:44 35.03726 -91.73706 37101 ft 539 kts 53°
2026-05-01 11:45 35.07882 -91.66069 37082 ft 539 kts 53°
2026-05-01 11:45 35.12020 -91.58441 37101 ft 539 kts 53°
2026-05-01 11:46 35.16159 -91.50791 37097 ft 539 kts 53°
2026-05-01 11:46 35.20292 -91.43135 37105 ft 539 kts 53°
2026-05-01 11:47 35.24418 -91.35473 37095 ft 539 kts 53°
2026-05-01 11:47 35.28515 -91.27853 37108 ft 539 kts 53°
2026-05-01 11:48 35.32638 -91.20167 37109 ft 539 kts 53°
2026-05-01 11:48 35.36751 -91.12482 37106 ft 539 kts 53°
2026-05-01 11:49 35.40855 -91.04798 37106 ft 539 kts 53°
2026-05-01 11:49 35.44955 -90.97106 37098 ft 539 kts 53°
2026-05-01 11:50 35.49050 -90.89401 37106 ft 538 kts 53°
2026-05-01 11:50 35.53109 -90.81742 37104 ft 538 kts 53°
2026-05-01 11:51 35.57195 -90.74026 37096 ft 539 kts 53°
2026-05-01 11:51 35.61276 -90.66300 37102 ft 538 kts 53°
2026-05-01 11:52 35.65347 -90.58573 37104 ft 538 kts 53°
2026-05-01 11:52 35.69412 -90.50844 37106 ft 538 kts 53°
2026-05-01 11:53 35.73476 -90.43103 37100 ft 538 kts 53°
2026-05-01 11:53 35.77532 -90.35353 37084 ft 538 kts 53°
2026-05-01 11:54 35.80899 -90.28905 37083 ft 538 kts 53°
2026-05-01 11:54 35.85600 -90.19880 37083 ft 538 kts 53°
2026-05-01 11:55 35.89638 -90.12114 37084 ft 538 kts 53°
2026-05-01 11:55 35.93022 -90.05595 37084 ft 538 kts 53°
2026-05-01 11:56 35.97028 -89.97855 37082 ft 538 kts 53°
2026-05-01 11:56 36.01056 -89.90057 37083 ft 538 kts 53°
2026-05-01 11:57 36.05082 -89.82252 37082 ft 538 kts 53°
2026-05-01 11:57 36.09101 -89.74436 37082 ft 538 kts 53°
2026-05-01 11:58 36.13116 -89.66606 37083 ft 539 kts 53°
2026-05-01 11:59 36.19127 -89.54859 37090 ft 538 kts 53°
2026-05-01 11:59 36.23128 -89.47019 37083 ft 539 kts 53°
2026-05-01 12:00 36.29097 -89.35287 37081 ft 539 kts 53°
2026-05-01 12:01 36.35077 -89.23482 37083 ft 538 kts 53°
2026-05-01 12:01 36.39056 -89.15608 37072 ft 538 kts 53°
2026-05-01 12:02 36.43035 -89.07717 37072 ft 539 kts 53°
2026-05-01 12:02 36.47011 -88.99815 37072 ft 539 kts 53°
2026-05-01 12:03 36.50978 -88.91913 37072 ft 538 kts 53°
2026-05-01 12:03 36.54937 -88.84004 37072 ft 539 kts 53°
2026-05-01 12:04 36.58868 -88.76136 37073 ft 539 kts 54°
2026-05-01 12:04 36.62820 -88.68208 37072 ft 539 kts 54°
2026-05-01 12:05 36.66769 -88.60266 37073 ft 539 kts 54°
2026-05-01 12:05 36.72689 -88.48333 37072 ft 539 kts 54°
2026-05-01 12:06 36.76620 -88.40379 37081 ft 539 kts 54°
2026-05-01 12:06 36.80546 -88.32410 37082 ft 539 kts 54°
2026-05-01 12:07 36.84465 -88.24440 37083 ft 539 kts 54°
2026-05-01 12:07 36.88383 -88.16460 37081 ft 538 kts 54°
2026-05-01 12:08 36.92267 -88.08525 37073 ft 539 kts 54°
2026-05-01 12:08 36.96172 -88.00531 37081 ft 539 kts 54°
2026-05-01 12:09 37.00073 -87.92529 37081 ft 539 kts 54°
2026-05-01 12:09 37.03975 -87.84502 37083 ft 540 kts 54°
2026-05-01 12:10 37.09818 -87.72443 37074 ft 540 kts 55°
2026-05-01 12:11 37.15651 -87.60367 37073 ft 540 kts 55°
2026-05-01 12:11 37.19530 -87.52309 37071 ft 539 kts 55°
2026-05-01 12:12 37.23400 -87.44242 37073 ft 539 kts 55°
2026-05-01 12:12 37.27267 -87.36174 37073 ft 539 kts 55°
2026-05-01 12:13 37.31107 -87.28145 37074 ft 539 kts 55°
2026-05-01 12:13 37.34962 -87.20062 37073 ft 540 kts 55°
2026-05-01 12:14 37.38817 -87.11955 37071 ft 539 kts 55°
2026-05-01 12:14 37.42665 -87.03840 37063 ft 540 kts 55°
2026-05-01 12:15 37.46504 -86.95726 37066 ft 540 kts 55°
2026-05-01 12:15 37.50338 -86.87603 37060 ft 539 kts 55°
2026-05-01 12:16 37.54143 -86.79524 37051 ft 540 kts 55°
2026-05-01 12:16 37.57970 -86.71374 37041 ft 540 kts 55°
2026-05-01 12:17 37.61792 -86.63220 37034 ft 540 kts 55°
2026-05-01 12:17 37.65529 -86.55224 37027 ft 540 kts 55°
2026-05-01 12:18 37.69338 -86.47053 37023 ft 540 kts 56°
2026-05-01 12:18 37.73145 -86.38866 37017 ft 540 kts 56°
2026-05-01 12:19 37.76950 -86.30669 37018 ft 540 kts 56°
2026-05-01 12:19 37.80749 -86.22459 37020 ft 540 kts 56°
2026-05-01 12:20 37.84517 -86.14295 37017 ft 540 kts 56°
2026-05-01 12:20 37.88301 -86.06070 37010 ft 540 kts 56°
2026-05-01 12:21 37.92082 -85.97841 37008 ft 540 kts 56°
2026-05-01 12:21 37.95861 -85.89598 37008 ft 540 kts 56°
2026-05-01 12:22 37.99632 -85.81343 37008 ft 541 kts 56°
2026-05-01 12:22 38.03394 -85.73081 37008 ft 541 kts 56°
2026-05-01 12:23 38.07150 -85.64817 37008 ft 540 kts 56°
2026-05-01 12:23 38.11141 -85.56858 37011 ft 533 kts 45°
2026-05-01 12:24 38.15939 -85.49678 37008 ft 531 kts 43°
2026-05-01 12:24 38.20842 -85.42665 37008 ft 530 kts 43°
2026-05-01 12:25 38.28208 -85.32149 36998 ft 530 kts 43°
2026-05-01 12:26 38.33098 -85.25112 36998 ft 530 kts 43°
2026-05-01 12:26 38.40417 -85.14530 36999 ft 530 kts 44°
2026-05-01 12:27 38.47696 -85.03976 36999 ft 530 kts 44°
2026-05-01 12:28 38.54988 -84.93367 37000 ft 529 kts 44°
2026-05-01 12:29 38.62271 -84.82737 36999 ft 530 kts 44°
2026-05-01 12:29 38.69544 -84.72085 36999 ft 529 kts 44°
2026-05-01 12:30 38.76805 -84.61417 36997 ft 529 kts 44°
2026-05-01 12:31 38.81636 -84.54295 36999 ft 528 kts 44°
2026-05-01 12:31 38.86455 -84.47174 36997 ft 528 kts 44°
2026-05-01 12:32 38.91273 -84.40047 36991 ft 528 kts 44°
2026-05-01 12:32 38.98465 -84.29390 36999 ft 528 kts 44°
2026-05-01 12:33 39.03265 -84.22238 36998 ft 528 kts 44°
2026-05-01 12:33 39.08063 -84.15077 37000 ft 528 kts 45°
2026-05-01 12:34 39.12854 -84.07905 37000 ft 528 kts 45°
2026-05-01 12:34 39.17646 -84.00724 36989 ft 527 kts 45°
2026-05-01 12:35 39.22421 -83.93551 36982 ft 527 kts 45°
2026-05-01 12:35 39.27196 -83.86364 36982 ft 527 kts 45°
2026-05-01 12:36 39.31963 -83.79172 36971 ft 527 kts 45°
2026-05-01 12:36 39.36690 -83.72010 36973 ft 527 kts 45°
2026-05-01 12:37 39.41447 -83.64794 36971 ft 527 kts 45°
2026-05-01 12:37 39.46197 -83.57577 36971 ft 526 kts 45°
2026-05-01 12:38 39.50943 -83.50348 36972 ft 527 kts 45°
2026-05-01 12:38 39.55697 -83.43101 36970 ft 527 kts 45°
2026-05-01 12:39 39.60438 -83.35851 36971 ft 528 kts 45°
2026-05-01 12:39 39.65175 -83.28585 36970 ft 527 kts 45°
2026-05-01 12:40 39.69109 -83.22540 36971 ft 527 kts 45°
2026-05-01 12:40 39.73834 -83.15259 36971 ft 527 kts 45°
2026-05-01 12:41 39.79319 -83.06795 36980 ft 527 kts 45°
2026-05-01 12:41 39.83278 -83.00670 36980 ft 527 kts 46°
2026-05-01 12:42 39.87960 -82.93394 36980 ft 527 kts 46°
2026-05-01 12:42 39.92669 -82.86079 36981 ft 527 kts 46°
2026-05-01 12:43 39.97363 -82.78758 36979 ft 526 kts 46°
2026-05-01 12:43 40.02058 -82.71424 36979 ft 527 kts 46°
2026-05-01 12:44 40.06743 -82.64093 36977 ft 524 kts 46°
2026-05-01 12:45 40.16076 -82.49427 36981 ft 525 kts 46°
2026-05-01 12:45 40.20734 -82.42077 36980 ft 525 kts 47°
2026-05-01 12:46 40.25390 -82.34713 36980 ft 525 kts 46°
2026-05-01 12:46 40.30039 -82.27343 36979 ft 524 kts 47°
2026-05-01 12:47 40.34654 -82.20029 36987 ft 524 kts 47°
2026-05-01 12:47 40.39292 -82.12638 36989 ft 524 kts 47°
2026-05-01 12:48 40.43935 -82.05236 36990 ft 525 kts 47°
2026-05-01 12:48 40.48565 -81.97828 36990 ft 525 kts 47°
2026-05-01 12:49 40.53191 -81.90401 36989 ft 524 kts 47°
2026-05-01 12:49 40.57809 -81.82982 36989 ft 524 kts 47°
2026-05-01 12:50 40.62421 -81.75555 36988 ft 523 kts 47°
2026-05-01 12:50 40.67023 -81.68128 36990 ft 523 kts 47°
2026-05-01 12:51 40.71616 -81.60692 36990 ft 523 kts 47°
2026-05-01 12:52 40.78481 -81.49533 36982 ft 521 kts 47°
2026-05-01 12:52 40.85307 -81.38416 36979 ft 521 kts 48°
2026-05-01 12:53 40.92144 -81.27231 36982 ft 521 kts 48°
2026-05-01 12:54 40.96689 -81.19770 36984 ft 521 kts 48°
2026-05-01 12:54 41.03504 -81.08559 36983 ft 520 kts 48°
2026-05-01 12:55 41.10296 -80.97334 36973 ft 520 kts 48°
2026-05-01 12:56 41.14822 -80.89835 36985 ft 520 kts 49°
2026-05-01 12:56 41.19339 -80.82333 36982 ft 520 kts 49°
2026-05-01 12:57 41.23814 -80.74878 36985 ft 519 kts 49°
2026-05-01 12:57 41.30563 -80.63605 36981 ft 519 kts 49°
2026-05-01 12:58 41.35049 -80.56090 36978 ft 518 kts 49°
2026-05-01 12:59 41.41767 -80.44808 36982 ft 518 kts 49°
2026-05-01 12:59 41.48472 -80.33500 36982 ft 517 kts 49°
2026-05-01 13:00 41.55148 -80.22192 36977 ft 517 kts 50°
2026-05-01 13:01 41.61809 -80.10874 36979 ft 516 kts 50°
2026-05-01 13:02 41.68431 -79.99582 36978 ft 516 kts 50°
2026-05-01 13:07 42.16700 -79.15958 36990 ft 513 kts 51°
2026-05-01 13:08 42.21101 -79.08367 36990 ft 513 kts 48°
2026-05-01 13:08 42.25844 -79.01185 36990 ft 512 kts 46°
2026-05-01 13:09 42.30614 -78.94130 36989 ft 512 kts 46°
2026-05-01 13:09 42.35358 -78.86967 36990 ft 511 kts 47°
2026-05-01 13:10 42.40066 -78.79747 36990 ft 511 kts 47°
2026-05-01 13:10 42.44767 -78.72499 36989 ft 511 kts 47°
2026-05-01 13:11 42.49457 -78.65253 36983 ft 511 kts 47°
2026-05-01 13:11 42.54139 -78.58006 36980 ft 510 kts 47°
2026-05-01 13:12 42.58816 -78.50758 36983 ft 511 kts 47°
2026-05-01 13:12 42.63490 -78.43492 36980 ft 511 kts 47°
2026-05-01 13:13 42.68128 -78.36260 36984 ft 511 kts 47°
2026-05-01 13:13 42.72793 -78.28969 36989 ft 511 kts 47°
2026-05-01 13:14 42.77452 -78.21670 36988 ft 511 kts 47°
2026-05-01 13:14 42.82135 -78.14314 36990 ft 511 kts 47°
2026-05-01 13:15 42.86759 -78.07035 36990 ft 511 kts 48°
2026-05-01 13:15 42.91406 -77.99708 36995 ft 511 kts 48°
2026-05-01 13:16 42.96045 -77.92368 36999 ft 510 kts 48°
2026-05-01 13:16 43.00675 -77.85021 36999 ft 510 kts 48°
2026-05-01 13:17 43.09922 -77.70296 37008 ft 510 kts 48°
2026-05-01 13:18 43.16886 -77.59288 37008 ft 510 kts 47°
2026-05-01 13:18 43.21568 -77.51984 37008 ft 509 kts 47°
2026-05-01 13:19 43.26239 -77.44663 37008 ft 510 kts 48°
2026-05-01 13:20 43.33201 -77.33699 37017 ft 509 kts 48°
2026-05-01 13:20 43.37858 -77.26334 37017 ft 510 kts 48°
2026-05-01 13:21 43.44834 -77.15270 37017 ft 510 kts 48°
2026-05-01 13:21 43.49474 -77.07884 37017 ft 510 kts 48°
2026-05-01 13:22 43.54109 -77.00489 37017 ft 510 kts 48°
2026-05-01 13:22 43.58740 -76.93083 37017 ft 509 kts 48°
2026-05-01 13:23 43.63365 -76.85666 37018 ft 509 kts 49°
2026-05-01 13:23 43.67982 -76.78243 37016 ft 509 kts 49°
2026-05-01 13:24 43.71812 -76.72070 37008 ft 509 kts 49°
2026-05-01 13:25 43.79465 -76.59693 37017 ft 509 kts 49°
2026-05-01 13:25 43.83313 -76.53453 37012 ft 509 kts 49°
2026-05-01 13:26 43.87870 -76.46045 37008 ft 508 kts 49°
2026-05-01 13:26 43.92450 -76.38578 37009 ft 508 kts 49°
2026-05-01 13:27 43.97036 -76.31086 37008 ft 508 kts 49°
2026-05-01 13:27 44.03892 -76.19840 36999 ft 508 kts 49°
2026-05-01 13:28 44.10736 -76.08574 36999 ft 508 kts 49°
2026-05-01 13:29 44.19843 -75.93515 36989 ft 508 kts 50°
2026-05-01 13:31 44.33431 -75.70892 36982 ft 508 kts 50°
2026-05-01 13:32 44.44740 -75.51933 36982 ft 507 kts 50°
2026-05-01 13:33 44.56003 -75.32920 36980 ft 507 kts 50°
2026-05-01 13:34 44.64961 -75.17713 36983 ft 506 kts 51°
2026-05-01 13:35 44.71680 -75.06248 36990 ft 506 kts 51°
2026-05-01 13:36 44.78379 -74.94770 36990 ft 506 kts 51°
2026-05-01 13:36 44.85074 -74.83257 36999 ft 506 kts 51°
2026-05-01 13:37 44.89526 -74.75573 37008 ft 506 kts 51°
2026-05-01 13:37 44.94040 -74.67942 37008 ft 506 kts 48°
2026-05-01 13:38 45.01271 -74.57092 37000 ft 506 kts 47°
2026-05-01 13:39 45.06097 -74.49847 36999 ft 505 kts 47°
2026-05-01 13:39 45.10848 -74.42585 36989 ft 505 kts 48°
2026-05-01 13:40 45.15607 -74.35245 36985 ft 505 kts 48°
2026-05-01 13:40 45.20357 -74.27899 36986 ft 505 kts 48°
2026-05-01 13:41 45.25097 -74.20558 36973 ft 505 kts 48°
2026-05-01 13:41 45.29833 -74.13201 36973 ft 504 kts 48°
2026-05-01 13:42 45.34559 -74.05843 36970 ft 504 kts 48°
2026-05-01 13:42 45.39275 -73.98479 36965 ft 504 kts 49°
2026-05-01 13:43 45.43987 -73.91105 36961 ft 503 kts 49°
2026-05-01 13:43 45.48699 -73.83714 36962 ft 503 kts 49°
2026-05-01 13:44 45.53394 -73.76324 36962 ft 503 kts 49°
2026-05-01 13:44 45.58088 -73.68915 36962 ft 503 kts 49°
2026-05-01 13:45 45.62774 -73.61502 36954 ft 503 kts 49°
2026-05-01 13:45 45.67459 -73.54067 36952 ft 503 kts 49°
2026-05-01 13:46 45.72137 -73.46626 36953 ft 503 kts 49°
2026-05-01 13:46 45.76818 -73.39160 36944 ft 503 kts 49°
2026-05-01 13:47 45.81486 -73.31694 36944 ft 503 kts 49°
2026-05-01 13:47 45.86150 -73.24214 36944 ft 503 kts 49°
2026-05-01 13:48 45.90814 -73.16711 36943 ft 503 kts 49°
2026-05-01 13:48 45.95467 -73.09206 36938 ft 503 kts 49°
2026-05-01 13:49 46.00093 -73.01726 36935 ft 503 kts 49°
2026-05-01 13:49 46.04736 -72.94199 36934 ft 502 kts 50°
2026-05-01 13:50 46.09367 -72.86674 36909 ft 502 kts 50°
2026-05-01 13:50 46.13988 -72.79137 36928 ft 501 kts 50°
2026-05-01 13:51 46.18601 -72.71595 36929 ft 501 kts 50°
2026-05-01 13:51 46.23212 -72.64037 36909 ft 501 kts 50°
2026-05-01 13:52 46.27814 -72.56470 36929 ft 501 kts 50°
2026-05-01 13:52 46.32415 -72.48884 36929 ft 501 kts 50°
2026-05-01 13:53 46.37013 -72.41288 36915 ft 502 kts 50°
2026-05-01 13:53 46.43899 -72.29861 36910 ft 502 kts 50°
2026-05-01 13:54 46.48486 -72.22228 36906 ft 502 kts 50°
2026-05-01 13:54 46.53067 -72.14585 36895 ft 501 kts 51°
2026-05-01 13:55 46.57645 -72.06919 36897 ft 501 kts 51°
2026-05-01 13:55 46.62211 -71.99250 36878 ft 501 kts 51°
2026-05-01 13:56 46.66744 -71.91618 36862 ft 501 kts 51°
2026-05-01 13:56 46.71297 -71.83929 36854 ft 500 kts 51°
2026-05-01 13:57 46.75073 -71.77541 36846 ft 500 kts 51°
2026-05-01 13:57 46.80374 -71.68548 36844 ft 500 kts 51°
2026-05-01 13:58 46.84901 -71.60843 36840 ft 500 kts 51°
2026-05-01 13:58 46.89426 -71.53115 36834 ft 500 kts 51°
2026-05-01 13:59 46.93943 -71.45381 36833 ft 500 kts 51°
2026-05-01 13:59 46.98421 -71.37690 36835 ft 499 kts 51°
2026-05-01 14:00 47.02923 -71.29942 36834 ft 500 kts 51°
2026-05-01 14:00 47.07421 -71.22176 36841 ft 499 kts 52°
2026-05-01 14:01 47.11911 -71.14400 36850 ft 499 kts 52°
2026-05-01 14:01 47.16394 -71.06615 36848 ft 499 kts 52°
2026-05-01 14:02 47.20875 -70.98809 36852 ft 499 kts 52°
2026-05-01 14:02 47.25342 -70.91007 36848 ft 498 kts 52°
2026-05-01 14:03 47.29776 -70.83236 36843 ft 498 kts 52°
2026-05-01 14:03 47.34233 -70.75408 36843 ft 499 kts 52°
2026-05-01 14:04 47.38688 -70.67557 36852 ft 498 kts 52°
2026-05-01 14:04 47.42389 -70.61025 36849 ft 498 kts 52°
2026-05-01 14:05 47.47578 -70.51834 36853 ft 498 kts 52°
2026-05-01 14:05 47.52010 -70.43954 36841 ft 498 kts 52°
2026-05-01 14:06 47.56438 -70.36061 36844 ft 498 kts 52°
2026-05-01 14:06 47.60111 -70.29499 36839 ft 498 kts 52°
2026-05-01 14:07 47.65248 -70.20298 36832 ft 498 kts 52°
2026-05-01 14:08 47.71118 -70.09735 36833 ft 498 kts 53°
2026-05-01 14:08 47.75514 -70.01800 36832 ft 497 kts 53°
2026-05-01 14:09 47.79908 -69.93851 36830 ft 497 kts 53°
2026-05-01 14:09 47.84303 -69.85876 36821 ft 497 kts 53°
2026-05-01 14:10 47.88682 -69.77901 36822 ft 497 kts 53°
2026-05-01 14:10 47.93025 -69.69960 36819 ft 497 kts 53°
2026-05-01 14:11 47.97421 -69.61905 36815 ft 497 kts 53°
2026-05-01 14:11 48.03928 -69.49926 36814 ft 497 kts 53°
2026-05-01 14:12 48.08278 -69.41888 36812 ft 497 kts 53°
2026-05-01 14:12 48.12629 -69.33838 36810 ft 497 kts 53°
2026-05-01 14:13 48.17020 -69.25829 36810 ft 497 kts 51°
2026-05-01 14:13 48.21673 -69.18116 36804 ft 499 kts 50°
2026-05-01 14:14 48.26358 -69.10458 36804 ft 498 kts 50°
2026-05-01 14:14 48.30999 -69.02745 36804 ft 498 kts 50°
2026-05-01 14:15 48.35615 -68.94983 36803 ft 497 kts 51°
2026-05-01 14:15 48.40183 -68.87252 36803 ft 498 kts 51°
2026-05-01 14:16 48.44774 -68.79456 36804 ft 497 kts 51°
2026-05-01 14:16 48.49362 -68.71651 36806 ft 497 kts 51°
2026-05-01 14:17 48.53950 -68.63830 36805 ft 497 kts 51°
2026-05-01 14:17 48.58534 -68.55991 36804 ft 498 kts 51°
2026-05-01 14:18 48.63113 -68.48131 36813 ft 498 kts 51°
2026-05-01 14:18 48.66914 -68.41601 36804 ft 497 kts 51°
2026-05-01 14:19 48.72251 -68.32395 36803 ft 497 kts 51°
2026-05-01 14:19 48.76808 -68.24509 36803 ft 497 kts 51°
2026-05-01 14:20 48.83602 -68.12704 36809 ft 497 kts 51°
2026-05-01 14:21 48.88143 -68.04788 36811 ft 497 kts 51°
2026-05-01 14:21 48.92677 -67.96855 36814 ft 497 kts 51°
2026-05-01 14:22 48.99464 -67.84939 36820 ft 496 kts 51°
2026-05-01 14:22 49.03983 -67.76979 36816 ft 496 kts 51°
2026-05-01 14:23 49.08486 -67.69018 36818 ft 496 kts 51°
2026-05-01 14:23 49.12989 -67.61030 36820 ft 496 kts 51°
2026-05-01 14:24 49.17484 -67.53037 36840 ft 495 kts 51°
2026-05-01 14:24 49.21967 -67.45042 36834 ft 495 kts 51°
2026-05-01 14:25 49.26446 -67.37032 36840 ft 495 kts 52°
2026-05-01 14:25 49.30907 -67.29019 36842 ft 495 kts 52°
2026-05-01 14:26 49.37604 -67.16957 36847 ft 495 kts 52°
2026-05-01 14:27 49.42061 -67.08896 36860 ft 495 kts 52°
2026-05-01 14:27 49.46480 -67.00880 36868 ft 494 kts 52°
2026-05-01 14:28 49.53130 -66.88768 36875 ft 494 kts 52°
2026-05-01 14:28 49.57584 -66.80621 36886 ft 494 kts 52°
2026-05-01 14:29 49.62007 -66.72508 36894 ft 494 kts 52°
2026-05-01 14:30 49.70803 -66.56317 36900 ft 494 kts 52°
2026-05-01 14:31 49.77401 -66.44091 36914 ft 494 kts 52°
2026-05-01 14:31 49.81798 -66.35918 36909 ft 493 kts 52°
2026-05-01 14:32 49.86186 -66.27731 36928 ft 493 kts 52°
2026-05-01 14:32 49.90557 -66.19555 36933 ft 492 kts 52°
2026-05-01 14:33 49.94893 -66.11412 36934 ft 492 kts 52°
2026-05-01 14:33 49.99256 -66.03194 36934 ft 493 kts 52°
2026-05-01 14:34 50.03610 -65.94973 36935 ft 492 kts 52°
2026-05-01 14:34 50.07958 -65.86735 36934 ft 492 kts 52°
2026-05-01 14:35 50.12305 -65.78476 36934 ft 493 kts 52°
2026-05-01 14:35 50.16643 -65.70203 36939 ft 493 kts 52°
2026-05-01 14:36 50.20977 -65.61903 36943 ft 493 kts 52°
2026-05-01 14:36 50.25302 -65.53605 36952 ft 492 kts 52°
2026-05-01 14:37 50.29617 -65.45304 36954 ft 492 kts 52°
2026-05-01 14:37 50.33896 -65.37041 36954 ft 492 kts 52°
2026-05-01 14:38 50.38195 -65.28710 36970 ft 492 kts 52°
2026-05-01 14:38 50.42487 -65.20366 36975 ft 491 kts 52°
2026-05-01 14:39 50.46772 -65.12013 36981 ft 491 kts 52°
2026-05-01 14:39 50.51051 -65.03646 36990 ft 491 kts 52°
2026-05-01 14:40 50.55319 -64.95270 36999 ft 491 kts 53°
2026-05-01 14:40 50.59587 -64.86866 37009 ft 491 kts 53°
2026-05-01 14:41 50.63835 -64.78473 37012 ft 490 kts 53°
2026-05-01 14:41 50.68080 -64.70062 37018 ft 490 kts 53°
2026-05-01 14:42 50.72321 -64.61627 37027 ft 490 kts 53°
2026-05-01 14:42 50.76561 -64.53175 37026 ft 490 kts 53°
2026-05-01 14:43 50.80760 -64.44773 37043 ft 490 kts 53°
2026-05-01 14:43 50.85004 -64.36258 37044 ft 490 kts 53°
2026-05-01 14:44 50.89192 -64.27829 37033 ft 490 kts 53°
2026-05-01 14:44 50.95504 -64.15063 37049 ft 490 kts 53°
2026-05-01 14:45 51.01788 -64.02287 37061 ft 490 kts 53°
2026-05-01 14:46 51.05975 -63.93741 37062 ft 490 kts 53°
2026-05-01 14:46 51.12235 -63.80913 37065 ft 489 kts 53°
2026-05-01 14:47 51.16406 -63.72338 37062 ft 489 kts 53°
2026-05-01 14:48 51.22640 -63.59460 37073 ft 489 kts 53°
2026-05-01 14:48 51.28859 -63.46545 37102 ft 489 kts 53°
2026-05-01 14:49 51.36437 -63.30720 37101 ft 489 kts 53°
2026-05-01 14:50 51.44693 -63.13384 37106 ft 489 kts 54°
2026-05-01 14:51 51.50868 -63.00330 37114 ft 489 kts 54°
2026-05-01 14:52 51.57021 -62.87250 37105 ft 489 kts 54°
2026-05-01 14:53 51.63139 -62.74176 37114 ft 489 kts 54°
2026-05-01 14:53 51.67227 -62.65414 37122 ft 490 kts 54°
2026-05-01 14:54 51.71309 -62.56639 37116 ft 489 kts 54°
2026-05-01 14:54 51.75381 -62.47847 37115 ft 489 kts 54°
2026-05-01 14:55 51.79453 -62.39028 37121 ft 489 kts 54°
2026-05-01 14:55 51.83518 -62.30194 37120 ft 489 kts 54°
2026-05-01 14:56 51.87569 -62.21357 37124 ft 489 kts 54°
2026-05-01 14:56 51.91618 -62.12493 37127 ft 489 kts 54°
2026-05-01 14:57 51.95664 -62.03607 37129 ft 489 kts 54°
2026-05-01 14:57 52.01716 -61.90260 37128 ft 489 kts 54°
2026-05-01 14:58 52.05737 -61.81346 37137 ft 489 kts 54°
2026-05-01 14:58 52.09751 -61.72421 37140 ft 489 kts 54°
2026-05-01 14:59 52.13742 -61.63525 37163 ft 489 kts 54°
2026-05-01 14:59 52.17770 -61.54508 37169 ft 489 kts 55°
2026-05-01 15:00 52.23736 -61.41090 37168 ft 489 kts 55°
2026-05-01 15:01 52.27718 -61.32095 37175 ft 489 kts 55°
2026-05-01 15:01 52.31699 -61.23073 37170 ft 489 kts 55°
2026-05-01 15:02 52.35673 -61.14037 37170 ft 489 kts 55°
2026-05-01 15:02 52.39638 -61.04991 37181 ft 489 kts 55°
2026-05-01 15:03 52.43598 -60.95921 37188 ft 489 kts 55°
2026-05-01 15:03 52.47550 -60.86838 37193 ft 489 kts 55°
2026-05-01 15:04 52.51495 -60.77738 37184 ft 489 kts 56°
2026-05-01 15:04 52.55434 -60.68615 37195 ft 489 kts 56°
2026-05-01 15:05 52.59365 -60.59481 37192 ft 489 kts 56°
2026-05-01 15:05 52.63293 -60.50322 37193 ft 489 kts 56°
2026-05-01 15:06 52.67209 -60.41152 37196 ft 489 kts 56°
2026-05-01 15:06 52.71098 -60.32020 37198 ft 489 kts 56°
2026-05-01 15:07 52.75005 -60.22815 37202 ft 489 kts 56°
2026-05-01 15:07 52.78906 -60.13589 37202 ft 489 kts 56°
2026-05-01 15:08 52.82799 -60.04347 37201 ft 489 kts 56°
2026-05-01 15:08 52.86682 -59.95097 37202 ft 489 kts 56°
2026-05-01 15:09 52.90560 -59.85821 37201 ft 489 kts 56°
2026-05-01 15:09 52.94426 -59.76545 37202 ft 489 kts 56°
2026-05-01 15:10 52.98288 -59.67236 37202 ft 489 kts 56°
2026-05-01 15:10 53.04038 -59.53317 37201 ft 489 kts 57°
2026-05-01 15:11 53.09802 -59.39295 37202 ft 489 kts 57°
2026-05-01 15:12 53.13629 -59.29938 37202 ft 489 kts 57°
2026-05-01 15:12 53.19363 -59.15857 37201 ft 489 kts 57°
2026-05-01 15:14 53.28876 -58.92312 37220 ft 489 kts 57°
2026-05-01 15:14 53.34544 -58.78187 37219 ft 489 kts 57°
2026-05-01 15:15 53.42100 -58.59224 37221 ft 489 kts 58°
2026-05-01 15:16 53.49624 -58.40206 37224 ft 489 kts 58°
2026-05-01 15:18 53.58995 -58.16307 37231 ft 489 kts 58°
2026-05-01 15:19 53.66454 -57.97120 37232 ft 489 kts 58°
2026-05-01 15:19 53.72027 -57.82693 37227 ft 489 kts 58°
2026-05-01 15:20 53.77582 -57.68226 37233 ft 489 kts 58°
2026-05-01 15:21 53.81252 -57.58621 37228 ft 489 kts 59°
2026-05-01 15:21 53.84937 -57.48935 37232 ft 489 kts 59°
2026-05-01 15:22 53.90442 -57.34404 37241 ft 488 kts 59°
2026-05-01 15:22 53.94106 -57.24682 37237 ft 489 kts 59°
2026-05-01 15:23 53.97761 -57.14952 37241 ft 488 kts 59°
2026-05-01 15:23 54.01407 -57.05204 37356 ft 487 kts 59°
2026-05-01 15:24 54.03199 -57.00402 37644 ft 486 kts 59°
2026-05-01 15:24 54.04968 -56.95524 37989 ft 483 kts 61°
2026-05-01 15:24 54.06615 -56.90547 38262 ft 482 kts 63°
2026-05-01 15:24 54.08197 -56.85524 38486 ft 482 kts 63°
2026-05-01 15:25 54.09765 -56.80478 38684 ft 482 kts 63°
2026-05-01 15:25 54.11337 -56.75433 38888 ft 482 kts 63°
2026-05-01 15:25 54.12926 -56.70383 39080 ft 482 kts 63°
2026-05-01 15:25 54.14525 -56.65337 39221 ft 484 kts 63°
2026-05-01 15:26 54.17743 -56.55254 39238 ft 484 kts 63°
2026-05-01 15:26 54.20959 -56.45161 39240 ft 484 kts 63°
2026-05-01 15:27 54.24164 -56.35045 39238 ft 484 kts 63°
2026-05-01 15:28 54.28955 -56.19855 39238 ft 483 kts 63°
2026-05-01 15:28 54.32116 -56.09783 39239 ft 483 kts 63°
2026-05-01 15:29 54.36871 -55.94538 39238 ft 483 kts 63°
2026-05-01 15:30 54.42646 -55.75883 39226 ft 483 kts 63°
2026-05-01 15:31 54.52562 -55.43524 39218 ft 482 kts 63°
2026-05-01 15:32 54.58756 -55.23090 39222 ft 482 kts 64°
2026-05-01 15:34 54.67499 -54.93936 39223 ft 481 kts 64°